| time (UTC) | temp F | wind direction | speed MPH | gust MPH | rain 1hr in | rain 24hr in | rain mn in | humidity % | barometer mb |
| 20260901201612 | 80 | 136 | 15.0 | 26.0 | 0.00 | 0.00 | 0.00 | 28 | 1013.9 |
| 20260901200109 | 79 | 187 | 16.0 | 24.0 | 0.00 | 0.00 | 0.00 | 29 | 1014.0 |
| 20260901194608 | 79 | 125 | 13.0 | 21.0 | 0.00 | 0.00 | 0.00 | 31 | 1014.1 |
| 20260901193106 | 77 | 125 | 13.0 | 21.0 | 0.00 | 0.00 | 0.00 | 32 | 1014.3 |
| 20260901191606 | 78 | 115 | 13.0 | 19.0 | 0.00 | 0.00 | 0.00 | 32 | 1014.5 |
| 20260901190111 | 77 | 116 | 13.0 | 20.0 | 0.00 | 0.00 | 0.00 | 33 | 1014.9 |
| 20260901184606 | 76 | 120 | 13.0 | 19.0 | 0.00 | 0.00 | 0.00 | 34 | 1015.1 |
| 20260901183113 | 75 | 145 | 13.0 | 19.0 | 0.00 | 0.00 | 0.00 | 35 | 1015.3 |
| 20260901181606 | 74 | 158 | 13.0 | 17.0 | 0.00 | 0.00 | 0.00 | 36 | 1015.5 |
| 20260901180108 | 75 | 155 | 13.0 | 20.0 | 0.00 | 0.00 | 0.00 | 35 | 1015.7 |
| 20260901174607 | 74 | 142 | 13.0 | 17.0 | 0.00 | 0.00 | 0.00 | 36 | 1015.8 |
| 20260901173112 | 73 | 140 | 14.0 | 18.0 | 0.00 | 0.00 | 0.00 | 37 | 1016.0 |
| 20260901171621 | 73 | 134 | 16.0 | 21.0 | 0.00 | 0.00 | 0.00 | 37 | 1016.2 |
| 20260901170106 | 73 | 155 | 14.0 | 22.0 | 0.00 | 0.00 | 0.00 | 37 | 1016.2 |
| 20260901164636 | 74 | 153 | 12.0 | 19.0 | 0.00 | 0.00 | 0.00 | 38 | 1016.1 |
| 20260901163104 | 73 | 171 | 13.0 | 18.0 | 0.00 | 0.00 | 0.00 | 38 | 1016.1 |
| 20260901161608 | 72 | 122 | 11.0 | 17.0 | 0.00 | 0.00 | 0.00 | 39 | 1016.0 |
| 20260901160108 | 71 | 124 | 11.0 | 15.0 | 0.00 | 0.00 | 0.00 | 40 | 1016.0 |
| 20260901154603 | 70 | 133 | 9.0 | 15.0 | 0.00 | 0.00 | 0.00 | 43 | 1016.0 |
| 20260901153106 | 69 | 117 | 7.0 | 11.0 | 0.00 | 0.00 | 0.00 | 45 | 1015.9 |
| 20260901151606 | 66 | 106 | 7.0 | 11.0 | 0.00 | 0.00 | 0.00 | 49 | 1016.0 |
| 20260901150105 | 65 | 119 | 6.0 | 9.0 | 0.00 | 0.00 | 0.00 | 51 | 1016.0 |
| 20260901144610 | 64 | 136 | 5.0 | 7.0 | 0.00 | 0.00 | 0.00 | 53 | 1016.2 |
| 20260901143110 | 62 | 91 | 2.0 | 4.0 | 0.00 | 0.00 | 0.00 | 56 | 1016.1 |
| 20260901141610 | 59 | 34 | 0.0 | 4.0 | 0.00 | 0.00 | 0.00 | 61 | 1016.1 |
| 20260901140107 | 59 | 0 | 0.0 | 0.0 | 0.00 | 0.00 | 0.00 | 64 | 1016.2 |
| 20260901134606 | 58 | 0 | 0.0 | 0.0 | 0.00 | 0.00 | 0.00 | 63 | 1016.3 |
| 20260901133105 | 56 | 0 | 0.0 | 0.0 | 0.00 | 0.00 | 0.00 | 66 | 1016.3 |
| 20260901131615 | 56 | 0 | 0.0 | 1.0 | 0.00 | 0.00 | 0.00 | 63 | 1016.3 |
| 20260901130108 | 56 | 0 | 0.0 | 0.0 | 0.00 | 0.00 | 0.00 | 62 | 1016.3 |
| 20260901124608 | 55 | 0 | 2.0 | 4.0 | 0.00 | 0.00 | 0.00 | 65 | 1016.2 |
| 20260901123107 | 53 | 342 | 3.0 | 4.0 | 0.00 | 0.00 | 0.00 | 67 | 1016.2 |
| 20260901121614 | 53 | 343 | 4.0 | 4.0 | 0.00 | 0.00 | 0.00 | 65 | 1016.1 |
| 20260901120124 | 56 | 0 | 0.0 | 0.0 | 0.00 | 0.00 | 0.00 | 62 | 1016.2 |
| 20260901114605 | 56 | 0 | 0.0 | 0.0 | 0.00 | 0.00 | 0.00 | 61 | 1016.1 |
| 20260901113106 | 57 | 0 | 0.0 | 0.0 | 0.00 | 0.00 | 0.00 | 61 | 1016.1 |
| 20260901111613 | 56 | 0 | 0.0 | 0.0 | 0.00 | 0.00 | 0.00 | 61 | 1016.2 |
| 20260901110107 | 55 | 0 | 0.0 | 0.0 | 0.00 | 0.00 | 0.00 | 62 | 1016.2 |
| 20260901104603 | 54 | 0 | 0.0 | 0.0 | 0.00 | 0.00 | 0.00 | 63 | 1016.1 |
| 20260901103129 | 55 | 0 | 0.0 | 0.0 | 0.00 | 0.00 | 0.00 | 63 | 1016.2 |
| 20260901101606 | 53 | 0 | 0.0 | 0.0 | 0.00 | 0.00 | 0.00 | 66 | 1016.2 |
| 20260901100107 | 55 | 0 | 0.0 | 0.0 | 0.00 | 0.00 | 0.00 | 62 | 1016.1 |
| 20260901094609 | 54 | 0 | 0.0 | 4.0 | 0.00 | 0.00 | 0.00 | 63 | 1016.0 |
| 20260901093132 | 54 | 350 | 2.0 | 3.0 | 0.00 | 0.00 | 0.00 | 63 | 1016.0 |
| 20260901091609 | 54 | 348 | 3.0 | 4.0 | 0.00 | 0.00 | 0.00 | 62 | 1016.0 |
| 20260901090108 | 56 | 0 | 0.0 | 0.0 | 0.00 | 0.00 | 0.00 | 59 | 1016.0 |
| 20260901084605 | 57 | 0 | 0.0 | 0.0 | 0.00 | 0.00 | 0.00 | 58 | 1016.2 |
| 20260901083108 | 57 | 0 | 0.0 | 0.0 | 0.00 | 0.00 | 0.00 | 59 | 1016.2 |
| 20260901081616 | 57 | 344 | 3.0 | 4.0 | 0.00 | 0.00 | 0.00 | 58 | 1016.2 |
| 20260901080107 | 58 | 0 | 0.0 | 0.0 | 0.00 | 0.00 | 0.00 | 58 | 1016.3 |
| 20260901074604 | 54 | 0 | 0.0 | 0.0 | 0.00 | 0.00 | 0.00 | 64 | 1016.4 |
| 20260901073107 | 54 | 343 | 5.0 | 7.0 | 0.00 | 0.00 | 0.00 | 64 | 1016.0 |
| 20260901071608 | 58 | 350 | 3.0 | 5.0 | 0.00 | 0.00 | 0.00 | 55 | 1016.0 |
| 20260901070107 | 61 | 0 | 0.0 | 0.0 | 0.00 | 0.00 | 0.00 | 53 | 1016.5 |
| 20260901064608 | 58 | 250 | 1.0 | 2.0 | 0.00 | 0.00 | 0.00 | 57 | 1016.3 |
| 20260901063103 | 60 | 0 | 0.0 | 3.0 | 0.00 | 0.00 | 0.00 | 53 | 1016.0 |
| 20260901061607 | 59 | 0 | 1.0 | 4.0 | 0.00 | 0.00 | 0.00 | 54 | 1016.0 |
| 20260901060111 | 63 | 318 | 1.0 | 4.0 | 0.00 | 0.00 | 0.00 | 49 | 1016.1 |
| 20260901054607 | 60 | 0 | 0.0 | 0.0 | 0.00 | 0.00 | 0.00 | 54 | 1016.0 |
| 20260901053124 | 62 | 309 | 4.0 | 5.0 | 0.00 | 0.00 | 0.00 | 51 | 1015.9 |
| 20260901051607 | 62 | 323 | 4.0 | 5.0 | 0.00 | 0.00 | 0.00 | 51 | 1015.8 |
| 20260901050108 | 62 | 316 | 4.0 | 6.0 | 0.00 | 0.00 | 0.00 | 50 | 1015.7 |
| 20260901044605 | 61 | 311 | 3.0 | 5.0 | 0.00 | 0.00 | 0.00 | 52 | 1015.6 |
| 20260901043130 | 60 | 335 | 5.0 | 8.0 | 0.00 | 0.00 | 0.00 | 53 | 1015.5 |
| 20260901041613 | 59 | 329 | 4.0 | 6.0 | 0.00 | 0.00 | 0.00 | 54 | 1015.3 |
| 20260901040109 | 62 | 327 | 5.0 | 8.0 | 0.00 | 0.00 | 0.00 | 50 | 1015.3 |
| 20260901034608 | 64 | 320 | 6.0 | 10.0 | 0.00 | 0.00 | 0.00 | 47 | 1015.3 |
| 20260901033110 | 65 | 325 | 6.0 | 9.0 | 0.00 | 0.00 | 0.00 | 45 | 1015.4 |
| 20260901031605 | 67 | 302 | 6.0 | 9.0 | 0.00 | 0.00 | 0.00 | 43 | 1015.5 |
| 20260901030105 | 66 | 304 | 6.0 | 11.0 | 0.00 | 0.00 | 0.00 | 43 | 1015.4 |
| 20260901024608 | 67 | 298 | 6.0 | 10.0 | 0.00 | 0.00 | 0.00 | 42 | 1015.4 |
| 20260901023105 | 67 | 281 | 5.0 | 9.0 | 0.00 | 0.00 | 0.00 | 42 | 1015.4 |
| 20260901021609 | 68 | 288 | 6.0 | 9.0 | 0.00 | 0.00 | 0.00 | 41 | 1015.2 |
| 20260901020111 | 68 | 288 | 6.0 | 9.0 | 0.00 | 0.00 | 0.00 | 41 | 1015.1 |
| 20260901014605 | 68 | 303 | 4.0 | 10.0 | 0.00 | 0.00 | 0.00 | 40 | 1014.7 |
| 20260901013107 | 70 | 306 | 8.0 | 14.0 | 0.00 | 0.00 | 0.00 | 38 | 1014.4 |
| 20260901011605 | 72 | 291 | 10.0 | 17.0 | 0.00 | 0.00 | 0.00 | 36 | 1014.4 |
| 20260901010107 | 73 | 312 | 8.0 | 20.0 | 0.00 | 0.00 | 0.00 | 36 | 1014.3 |
| 20260901004608 | 74 | 313 | 13.0 | 20.0 | 0.00 | 0.00 | 0.00 | 34 | 1014.2 |
| 20260901003105 | 74 | 325 | 14.0 | 24.0 | 0.00 | 0.00 | 0.00 | 34 | 1014.1 |
| 20260901001612 | 75 | 338 | 12.0 | 22.0 | 0.00 | 0.00 | 0.00 | 33 | 1014.1 |
| 20260901000108 | 75 | 309 | 14.0 | 23.0 | 0.00 | 0.00 | 0.00 | 33 | 1014.1 |
| 20260831234606 | 75 | 277 | 17.0 | 30.0 | 0.00 | 0.00 | 0.00 | 33 | 1014.0 |
| 20260831233102 | 76 | 304 | 17.0 | 24.0 | 0.00 | 0.00 | 0.00 | 32 | 1013.9 |
| 20260831231609 | 76 | 279 | 20.0 | 32.0 | 0.00 | 0.00 | 0.00 | 32 | 1014.0 |
| 20260831230108 | 76 | 284 | 18.0 | 28.0 | 0.00 | 0.00 | 0.00 | 32 | 1014.0 |
| 20260831224604 | 77 | 309 | 17.0 | 28.0 | 0.00 | 0.00 | 0.00 | 32 | 1013.9 |
| 20260831223105 | 76 | 296 | 18.0 | 31.0 | 0.00 | 0.00 | 0.00 | 32 | 1013.8 |
| 20260831221609 | 76 | 304 | 16.0 | 29.0 | 0.00 | 0.00 | 0.00 | 31 | 1013.8 |
| 20260831220131 | 76 | 302 | 15.0 | 31.0 | 0.00 | 0.00 | 0.00 | 33 | 1013.8 |
| 20260831214606 | 76 | 304 | 21.0 | 35.0 | 0.00 | 0.00 | 0.00 | 32 | 1013.9 |
| 20260831213108 | 76 | 262 | 22.0 | 35.0 | 0.00 | 0.00 | 0.00 | 32 | 1013.6 |
| 20260831211607 | 76 | 298 | 20.0 | 31.0 | 0.00 | 0.00 | 0.00 | 33 | 1013.8 |
| 20260831210103 | 75 | 312 | 21.0 | 31.0 | 0.00 | 0.00 | 0.00 | 34 | 1013.9 |
| 20260831204604 | 76 | 267 | 17.0 | 29.0 | 0.00 | 0.00 | 0.00 | 33 | 1013.8 |
| 20260831203135 | 75 | 296 | 19.0 | 33.0 | 0.00 | 0.00 | 0.00 | 34 | 1013.8 |